Weather History for Alesund, Norway

Change the Weather History Date:

Sunday, March 2, 2014

  Actual Average Record
Temperature  
Mean Temperature 39 °F -  
Max Temperature 45 °F 40 °F 51 °F (2011)
Min Temperature 33 °F 34 °F 19 °F (2001)
Degree Days  
Heating Degree Days 26    
Moisture  
Dew Point 27 °F    
Average Humidity 55    
Maximum Humidity 92    
Minimum Humidity 31    
Precipitation  
Precipitation 0.00 in - - ()
Sea Level Pressure  
Sea Level Pressure 29.44 in    
Wind  
Wind Speed 10 mph ()    
Max Wind Speed 20 mph    
Max Gust Speed 20 mph    
Visibility 6.2 miles    
Events      
Averages and records for this station are not official NWS values.
T = Trace of Precipitation, MM = Missing Value Source: Averaged Metar Reports

Daily Weather History Graph

Daily Weather History Graph

Search for Another Location

Airport:

Trip Planner

Search our weather history database for the weather conditions in past years. The results will help you decide how hot, cold, wet, or windy it might be!

Date:

Astronomy

Mar. 02, 2014 Rise Set
Actual Time 7:36 AM CET 6:00 PM CET
Civil Twilight 6:51 AM CET 6:45 PM CET
Nautical Twilight 5:59 AM CET 7:37 PM CET
Astronomical Twilight 5:05 AM CET 8:31 PM CET
Moon 7:27 AM CET (3/2) 8:19 PM CET (3/2)
Length of Visible Light 11h 54m
Length of Day
10h 23m
New Moon, 2% of the Moon is Illuminated
Mar 2
New Moon
Mar 8
First Quarter
Mar 16
Full
Mar 24
Last Quarter
Mar 30
New

Hourly Weather History & Observations

Time (CET) Temp. Windchill Dew Point Humidity Pressure Visibility Wind Dir Wind Speed Gust Speed Precip Events Conditions
12:00 AM 37 °F - 35 °F 92% 29.60 in - East 8.9 mph - -  
1:00 AM 36 °F - 34 °F 88% 29.59 in - East 6.7 mph - -  
2:00 AM 36 °F - 35 °F 92% 29.59 in - East 6.7 mph - -  
3:00 AM 35 °F - 33 °F 90% 29.58 in - East 6.7 mph - -  
4:00 AM 37 °F - 34 °F 84% 29.57 in - SE 4.5 mph - -  
5:00 AM 35 °F - 33 °F 90% 29.56 in - SE 4.5 mph - -  
5:20 AM 35.6 °F 30.7 °F 32.0 °F 87% 29.53 in - SSE 5.8 mph - N/A   Clear
5:50 AM 35.6 °F 32.8 °F 32.0 °F 87% 29.53 in 6.2 mi SE 3.5 mph - N/A   Mostly Cloudy
6:00 AM 38 °F - 32 °F 71% 29.55 in - ESE 4.5 mph - -  
6:20 AM 37.4 °F 33.8 °F 32.0 °F 81% 29.53 in 6.2 mi SE 4.6 mph - N/A   Mostly Cloudy
6:50 AM 39.2 °F 31.6 °F 28.4 °F 65% 29.50 in - ESE 12.7 mph - N/A   Clear
7:00 AM 40 °F - 28 °F 50% 29.53 in 40 mi SE 13.4 mph - -   Partly Cloudy
7:20 AM 41.0 °F 33.1 °F 26.6 °F 57% 29.50 in - SE 15.0 mph - N/A   Clear
7:50 AM 41.0 °F 32.8 °F 26.6 °F 57% 29.50 in - ESE 16.1 mph - N/A   Clear
8:00 AM 40 °F - 26 °F 44% 29.52 in - ESE 15.7 mph - -  
8:20 AM 41.0 °F 32.5 °F 26.6 °F 57% 29.50 in - ESE 17.3 mph - N/A   Clear
8:50 AM 41.0 °F 32.5 °F 26.6 °F 57% 29.50 in - ESE 17.3 mph - N/A   Clear
9:00 AM 41 °F - 26 °F 41% 29.51 in - SE 17.9 mph - -  
9:20 AM 41.0 °F 32.2 °F 26.6 °F 57% 29.50 in - SE 18.4 mph - N/A   Clear
9:50 AM 42.8 °F 34.3 °F 24.8 °F 49% 29.47 in - SE 19.6 mph - N/A   Clear
10:00 AM 42 °F - 25 °F 37% 29.50 in 44 mi SE 17.9 mph - -   Partly Cloudy
10:20 AM 42.8 °F 34.5 °F 24.8 °F 49% 29.47 in - SE 18.4 mph - N/A   Clear
10:50 AM 42.8 °F 35.1 °F 24.8 °F 49% 29.47 in - SE 16.1 mph - N/A   Clear
11:00 AM 43 °F - 25 °F 36% 29.49 in - SE 15.7 mph - -  
11:20 AM 42.8 °F 34.8 °F 24.8 °F 49% 29.47 in - SE 17.3 mph - N/A   Clear
11:50 AM 42.8 °F 35.1 °F 24.8 °F 49% 29.47 in - SE 16.1 mph - N/A   Clear
12:00 PM 43 °F - 26 °F 38% 29.48 in - SE 17.9 mph - -  
12:20 PM 42.8 °F 35.1 °F 24.8 °F 49% 29.44 in - ESE 16.1 mph - N/A   Clear
12:50 PM 42.8 °F 35.1 °F 24.8 °F 49% 29.44 in - SE 16.1 mph - N/A   Clear
1:00 PM 43 °F - 24 °F 35% 29.46 in 44 mi SE 15.7 mph - -   Partly Cloudy
1:20 PM 42.8 °F 35.8 °F 24.8 °F 49% 29.44 in - ESE 13.8 mph - N/A   Clear
1:50 PM 44.6 °F 38.4 °F 24.8 °F 46% 29.42 in - ESE 12.7 mph - N/A   Clear
2:00 PM 45 °F - 25 °F 32% 29.44 in - ESE 11.2 mph - -  
2:20 PM 44.6 °F 38.4 °F 24.8 °F 46% 29.42 in - ESE 12.7 mph - N/A   Clear
2:50 PM 44.6 °F 39.7 °F 24.8 °F 46% 29.42 in - ESE 9.2 mph - N/A   Clear
3:00 PM 45 °F - 24 °F 31% 29.42 in - ESE 8.9 mph - -  
3:20 PM 44.6 °F 39.7 °F 24.8 °F 46% 29.42 in - ESE 9.2 mph - N/A   Clear
3:50 PM 44.6 °F 39.7 °F 24.8 °F 46% 29.39 in - ESE 9.2 mph - N/A   Clear
4:00 PM 45 °F - 26 °F 34% 29.40 in 47 mi ESE 8.9 mph - -   Partly Cloudy
4:20 PM 44.6 °F 39.7 °F 24.8 °F 46% 29.39 in - ESE 9.2 mph - N/A   Clear
4:50 PM 44.6 °F 39.2 °F 26.6 °F 49% 29.36 in - ESE 10.4 mph - N/A   Clear
5:00 PM 44 °F - 26 °F 36% 29.38 in - ESE 11.2 mph - -  
5:20 PM 44.6 °F 40.2 °F 26.6 °F 49% 29.36 in - ESE 8.1 mph - N/A   Clear
5:50 PM 42.8 °F 38.0 °F 26.6 °F 53% 29.36 in - ESE 8.1 mph - N/A   Clear
6:00 PM 42 °F - 26 °F 40% 29.37 in - ESE 8.9 mph - -  
6:20 PM 41.0 °F 37.1 °F 26.6 °F 57% 29.36 in - ESE 5.8 mph - N/A   Clear
6:50 PM 42.8 °F 38.6 °F 26.6 °F 53% 29.33 in - ESE 6.9 mph 19.6 mph N/A   Clear
7:00 PM 42 °F - 26 °F 40% 29.36 in 44 mi SE 6.7 mph - -   Partly Cloudy
7:20 PM 41.0 °F 36.4 °F 24.8 °F 53% 29.33 in - SE 6.9 mph - N/A   Clear
7:50 PM 41.0 °F 37.1 °F 26.6 °F 57% 29.33 in - ESE 5.8 mph - N/A   Clear
8:00 PM 40 °F - 27 °F 48% 29.35 in - SE 6.7 mph - -  
8:20 PM 41.0 °F 34.7 °F 26.6 °F 57% 29.33 in - ESE 10.4 mph - N/A   Clear
8:50 PM 42.8 °F 35.8 °F 26.6 °F 53% 29.33 in - SE 13.8 mph - N/A   Clear
9:00 PM 42 °F - 26 °F 40% 29.34 in - SE 13.4 mph - -  
9:20 PM 41.0 °F 34.7 °F 26.6 °F 57% 29.33 in - SE 10.4 mph - N/A   Clear
9:50 PM 41.0 °F 35.8 °F 26.6 °F 57% 29.33 in - SE 8.1 mph - N/A   Clear
10:00 PM 39 °F - 27 °F 50% 29.34 in - SE 8.9 mph - -  
10:20 PM 39.2 °F 33.0 °F 28.4 °F 65% 29.33 in - SE 9.2 mph - N/A   Clear
10:50 PM 39.2 °F 32.5 °F 26.6 °F 61% 29.33 in - SE 10.4 mph - N/A   Clear
11:00 PM 40 °F - 27 °F 48% 29.34 in - SE 11.2 mph - -  
11:20 PM 39.2 °F 33.6 °F 28.4 °F 65% 29.33 in - SE 8.1 mph - N/A   Clear
11:50 PM 41.0 °F 35.2 °F 26.6 °F 57% 29.33 in - SE 9.2 mph - N/A   Clear